Location: Jodlow
(50.1500°N, 16.7500°E)
Time: 13:48:11
(UTC+01:00)

N. Korean satellite - Visible Passes

Search period start: 08 December 2022 00:00
Search period end: 18 December 2022 00:00
Orbit: 420 x 452 km, 97.3° (Epoch: 08 December)

Date Brightness Start Highest point End Pass type
(mag) Time Alt. Az. Time Alt. Az. Time Alt. Az.
08 Dec 7.6 04:57:40 10° NNE 05:00:55 41° E 05:04:07 10° S visible
08 Dec 8.0 06:30:56 10° NNW 06:33:08 16° WNW 06:35:18 10° WSW visible
08 Dec 9.2 17:04:06 10° SSW 17:06:51 23° W 17:09:37 10° NW visible
09 Dec 9.5 04:19:32 10° NE 04:21:36 15° E 04:23:39 10° SE visible
09 Dec 6.7 05:51:05 10° N 05:54:19 41° WNW 05:57:28 10° SW visible
09 Dec 6.9 16:24:13 10° S 16:27:36 67° WSW 16:31:01 10° NNW visible
10 Dec 6.8 05:11:53 10° NNE 05:15:15 63° ESE 05:18:33 10° S visible
10 Dec 8.3 06:45:56 10° NW 06:47:15 12° WNW 06:48:35 10° W visible
10 Dec 9.6 17:18:59 10° SW 17:21:12 16° W 17:23:25 10° NW visible
11 Dec 8.9 04:33:14 10° NE 04:35:54 21° E 04:38:32 10° SE visible
11 Dec 7.2 06:05:28 10° N 06:08:25 28° WNW 06:11:21 10° SW visible
11 Dec 7.8 16:38:30 10° S 16:41:46 44° W 16:45:04 10° NNW visible
12 Dec 6.2 05:25:56 10° NNE 05:29:20 86° WNW 05:32:39 10° SSW visible
12 Dec 9.9 17:34:10 10° WSW 17:35:22 11° W 17:36:34 10° WNW visible
13 Dec 8.3 04:46:57 10° NNE 04:49:58 30° E 04:52:56 10° SSE visible
13 Dec 7.6 06:19:44 10° NNW 06:22:18 21° WNW 06:24:51 10° WSW visible
13 Dec 8.6 16:52:43 10° SSW 16:55:46 30° W 16:58:50 10° NNW visible
14 Dec 9.9 04:11:15 10° ESE 04:11:15 10° ESE 04:11:24 10° ESE visible
14 Dec 7.5 05:39:52 10° N 05:44:39 29° SW 05:46:26 10° SSW visible
15 Dec 8.4 05:00:34 10° NNE 05:05:36 22° SSE 05:06:58 10° S visible
15 Dec 8.5 06:33:56 10° NNW 06:39:00 - WSW 06:34:29 12° NW visible
15 Dec 9.3 17:06:53 10° SW 17:09:34 21° W 17:12:17 10° NW visible
16 Dec 9.7 04:26:20 10° SE 04:26:20 10° SE 04:20:54 - NE visible
16 Dec 8.6 05:53:40 10° N 05:59:43 11° SW 05:59:54 10° SW visible
16 Dec 7.0 16:26:36 10° S 16:29:58 63° WSW 16:33:22 10° NNW visible
17 Dec 8.9 05:20:17 13° S 05:20:17 13° S 05:20:40 10° S visible
17 Dec 9.6 17:21:06 10° SW 17:23:12 15° W 17:25:19 10° NW visible
